Location: St. Louis
(38.6270°N, 90.1994°W)
Time: 20:14:10
(UTC-06:00)

Altair - Pass Details

Date: 06 December 2021
Orbit: 1501 x 1683 km, 47.2° (Epoch: 26 January)

Event Time Altitude Azimuth Distance (km) Brightness Sun altitude
Rises 18:29:44 0° 289° (WNW) 4,722 11.0 -21.0°
Reaches altitude 10° 18:32:58 10° 294° (WNW) 3,716 10.2 -21.6°
Maximum altitude 18:42:04 53° 10° (N) 1,797 7.6 -23.3°
Enters shadow 18:45:26 38° 63° (ENE) 2,162 7.7 -24.0°
